Flag for U.S.A. Weather past 2 weeks in Flagstaff, Arizona, U.S.A.

Now
64 °F

Light rain. Overcast.


Feels Like: 64 °F
Forecast: 50 / 73 °F
Wind: 3 mph from Northwest

Location: Flagstaff Pulliam Airport

Current Time: Aug 27, 2014 at 4:11:41 PM

Latest Report: Aug 27, 2014 at 2:57 PM


Visibility: 10 mi

Pressure: 30.13 "Hg

Humidity: 61%

Dew point: 50 °F

Location of FlagstaffLocation

Historic Weather in Flagstaff — Graph

°F

Flagstaff temperature yesterday

Maximum temperature yesterday: 69 °F (at 11:57 AM)
Minimum temperature yesterday: 48 °F (at 9:57 PM)
Average temperature yesterday: 56 °F

Past Weeks' High & Low Weather Summary

 TemperatureHumidityPressure
High82 °F (Aug 17, 12:57 PM)97% (Aug 13, 6:57 AM)30.34 "Hg (Aug 13, 6:57 AM)
Low44 °F (Aug 24, 5:57 AM)28% (Aug 17, 12:57 PM)29.87 "Hg (Aug 19, 3:57 PM)
Average60 °F74%30.03 "Hg
* Reported Aug 12 2:57 PM — Aug 27 2:57 PM, Flagstaff, Weather by CustomWeather, © 2014

Note: Actual official high and low records may vary slightly from our data, if they occured in-between our weather recording intervals... More about our weather records

Advertising

Flagstaff weather history for previous 24 hours

 ConditionsComfort  
Time TempWeatherWind HumidityBarometerVisibility
2:57 PM
Aug 27
64 °FLight rain. Overcast.3 mph61%30.13 "Hg10 mi
1:57 PM71 °FScattered clouds.9 mph41%30.11 "Hg10 mi
12:57 PM68 °FPartly sunny.10 mph51%30.13 "Hg10 mi
11:57 AM66 °FMostly cloudy.7 mph54%30.15 "Hg10 mi
10:57 AM68 °FScattered clouds.5 mph49%30.16 "Hg10 mi
9:57 AM63 °FPassing clouds.3 mph73%30.19 "Hg10 mi
8:57 AM59 °FSunny.No wind78%30.19 "Hg10 mi
7:57 AM53 °FLow clouds.No wind93%30.21 "Hg7 mi
6:57 AM52 °FFog.6 mph93%30.19 "Hg1 mi
5:57 AM51 °FFog.No wind96%30.17 "Hg1 mi
4:57 AM52 °FMostly cloudy.3 mph93%30.15 "Hg10 mi
3:57 AM51 °FHeavy rain. Fog.8 mph92%30.16 "Hg3 mi
2:57 AM49 °FMostly cloudy.No wind93%30.12 "Hg10 mi
1:57 AM48 °FPassing clouds.No wind96%30.11 "Hg10 mi
12:57 AM50 °FOvercast.No wind93%30.10 "Hg10 mi
11:57 PM
Aug 26
50 °FMostly cloudy.No wind89%30.09 "Hg10 mi
10:57 PM48 °FPassing clouds.No wind93%30.12 "Hg10 mi
9:57 PM48 °FFog.No wind93%30.14 "Hg1 mi
8:57 PM50 °FClear.No wind93%30.12 "Hg10 mi
7:57 PM52 °FClear.No wind89%30.11 "Hg10 mi
6:57 PM55 °FPassing clouds.No wind87%30.09 "Hg10 mi
5:57 PM57 °FThunderstorms. Mostly cloudy.3 mph81%30.08 "Hg10 mi
4:57 PM57 °FThunderstorms. Partly sunny.5 mph78%30.09 "Hg10 mi
Weather by CustomWeather, © 2014

See weather overviewHow to use our weather pages